Oklahoma City, OK

1:11 AM CDT on June 23, 2017 (GMT -0500)
Will Rogers World

Weather History for KOKC - February, 2013

Change the Weather History Date:

Sunday, February 17, 2013

  Actual Average Record
Temperature  
Mean Temperature 52 °F 44 °F  
Max Temperature 71 °F 55 °F 80 °F (2011)
Min Temperature 32 °F 33 °F 5 °F (1900)
Degree Days  
Heating Degree Days 13 21  
Month to date heating degree days 331 386  
Since 1 July heating degree days 2283 2539  
Growing Degree Days 2 (Base 50)    
Moisture  
Dew Point 28 °F    
Average Humidity 47    
Maximum Humidity 75    
Minimum Humidity 19    
Precipitation  
Precipitation 0.00 in 0.06 in 0.88 in (1961)
Month to date precipitation 0.70 0.90  
Year to date precipitation 1.84 2.29  
Snow  
Snow 0.00 in 0.10 in 3.80 in (1940)
Month to date snowfall 2.3 1.0  
Since 1 July snowfall 3.7 6.3  
Snow Depth -    
Sea Level Pressure  
Sea Level Pressure 29.88 in    
Wind  
Wind Speed 16 mph (South)    
Max Wind Speed 32 mph    
Max Gust Speed 39 mph    
Visibility 10 miles    
Events      
T = Trace of Precipitation, MM = Missing Value Source: NWS Daily Summary

Daily Weather History Graph

Daily Weather History Graph

Search for Another Location

Airport or City:

Trip Planner

Search our weather history database for the weather conditions in past years. The results will help you decide how hot, cold, wet, or windy it might be!

Date:

Astronomy

Feb. 17, 2013 Rise Set
Actual Time 7:14 AM CST 6:14 PM CST
Civil Twilight 6:48 AM CST 6:40 PM CST
Nautical Twilight 6:18 AM CST 7:10 PM CST
Astronomical Twilight 5:49 AM CST 7:40 PM CST
Moon 11:25 AM CST (2/17) 12:55 AM CST (2/17)
Length of Visible Light 11h 52m
Length of Day
11h 00m
Waxing Crescent, 49% of the Moon is Illuminated
Feb 17
Waxing Crescent
Feb 17
First Quarter
Feb 25
Full
Mar 4
Last Quarter
Mar 11
New

Hourly Weather History & Observations

Time (CST) Temp. Windchill Dew Point Humidity Pressure Visibility Wind Dir Wind Speed Gust Speed Precip Events Conditions
12:52 AM 37.0 °F 30.4 °F 28.0 °F 70% 30.06 in 10.0 mi South 9.2 mph - N/A   Partly Cloudy
1:52 AM 36.0 °F 29.0 °F 27.0 °F 70% 30.05 in 10.0 mi South 9.2 mph - N/A   Partly Cloudy
2:52 AM 37.0 °F 29.8 °F 27.0 °F 67% 30.03 in 10.0 mi South 10.4 mph - N/A   Partly Cloudy
3:52 AM 33.1 °F 25.5 °F 26.1 °F 75% 30.01 in 10.0 mi South 9.2 mph - N/A   Partly Cloudy
4:52 AM 33.1 °F 26.1 °F 26.1 °F 75% 30.00 in 10.0 mi SSE 8.1 mph - N/A   Partly Cloudy
5:52 AM 34.0 °F 27.2 °F 27.0 °F 75% 30.00 in 10.0 mi SSE 8.1 mph - N/A   Clear
6:52 AM 33.1 °F 25.5 °F 26.1 °F 75% 30.00 in 10.0 mi SSE 9.2 mph - N/A   Clear
7:52 AM 35.1 °F 29.3 °F 28.0 °F 76% 29.99 in 10.0 mi SSE 6.9 mph - N/A   Clear
8:52 AM 42.1 °F 35.2 °F 30.0 °F 62% 29.99 in 10.0 mi South 12.7 mph - N/A   Clear
9:52 AM 53.6 °F - 30.2 °F 41% 29.97 in 10.0 mi SSW 20.7 mph - N/A   Clear
10:52 AM 57.9 °F - 28.0 °F 32% 29.96 in 10.0 mi SSW 17.3 mph - N/A   Clear
11:52 AM 64.0 °F - 30.0 °F 28% 29.93 in 10.0 mi South 18.4 mph - N/A   Clear
12:52 PM 66.0 °F - 28.0 °F 24% 29.88 in 10.0 mi South 20.7 mph 26.5 mph N/A   Clear
1:52 PM 69.1 °F - 28.9 °F 22% 29.84 in 10.0 mi South 23.0 mph 26.5 mph N/A   Partly Cloudy
2:52 PM 70.0 °F - 28.9 °F 22% 29.80 in 10.0 mi South 21.9 mph 29.9 mph N/A   Partly Cloudy
3:52 PM 71.1 °F - 27.0 °F 19% 29.77 in 10.0 mi South 24.2 mph 34.5 mph N/A   Partly Cloudy
4:52 PM 70.0 °F - 28.0 °F 21% 29.75 in 10.0 mi South 20.7 mph 29.9 mph N/A   Scattered Clouds
5:52 PM 66.9 °F - 27.0 °F 22% 29.75 in 10.0 mi South 18.4 mph 29.9 mph N/A   Scattered Clouds
6:52 PM 62.1 °F - 26.1 °F 25% 29.75 in 10.0 mi South 12.7 mph - N/A   Scattered Clouds
7:52 PM 60.1 °F - 26.1 °F 27% 29.74 in 10.0 mi SSE 17.3 mph - N/A   Scattered Clouds
8:52 PM 57.9 °F - 28.0 °F 32% 29.74 in 10.0 mi SSE 18.4 mph 29.9 mph N/A   Mostly Cloudy
9:52 PM 57.0 °F - 30.0 °F 36% 29.72 in 10.0 mi South 23.0 mph 33.4 mph N/A   Mostly Cloudy
11:52 PM 55.9 °F - 33.1 °F 42% 29.70 in 10.0 mi South 25.3 mph 35.7 mph N/A   Scattered Clouds